Regional Weather Roundup
Issued by NWS

Home | Current Version | Previous Version | Graphics & Text | Print | Product List | Glossary On
Versions: 1 2 3 4 5 6 7 8 9 10 11 12 13 14 15 16 17 18 19 20 21 22 23 24 25 26 27 28 29 30 31 32 33 34 35 36 37 38 39 40 41 42 43 44 45 46 47 48 49 50
641
ASUS44 KJAN 300610
RWRMS

MISSISSIPPI HOURLY WEATHER ROUNDUP
NATIONAL WEATHER SERVICE JACKSON MS
100 AM CDT WED JUL 30 2014

NOTE: "FAIR: INDICATES FEW OR NO CLOUDS BELOW 12,000 FEET WITH NO
SIGNIFICANT WEATHER AND/OR OBSTRUCTIONS TO VISIBILITY.

MSZ001>002-007>008-010>013-018>021-025>028-034>036-300700-
NORTHWEST MISSISSIPPI

CITY           SKY/WX    TMP DP  RH WIND       PRES   REMARKS
CLARKSDALE     FAIR      64  61  88 NE6       30.10F
CLEVELAND      FAIR      65  62  91 CALM      30.09S
GREENWOOD      CLEAR     62  60  93 NE3       30.09F
6HR MIN TEMP:  62; 6HR MAX TEMP:  78;

GREENVILLE     PTCLDY    64  62  93 CALM      30.08F
6HR MIN TEMP:  63; 6HR MAX TEMP:  80;

GRENADA        FAIR      59  59 100 N5        30.09F
OLIVE BRANCH   CLEAR     63  63 100 CALM      30.11F
OXFORD         FAIR      57  55  94 CALM      30.12S
TUNICA         CLEAR     63  61  94 CALM      30.11S
$$

MSZ003>006-009-014>017-022>024-029>033-037>039-300700-
NORTHEAST MISSISSIPPI

CITY           SKY/WX    TMP DP  RH WIND       PRES   REMARKS
BELMONT        FAIR      58  57  96 CALM      30.10F
COLUMBUS AFB   CLEAR     60  58  91 CALM      30.09S
6HR MIN TEMP:  60; 6HR MAX TEMP:  77;

CORINTH        FAIR      57  55  94 CALM      30.10F FOG
GOLDN TRIANGLE CLEAR     59  54  82 N5        30.09F
STARKVILLE     FAIR      59  57  94 CALM      30.09S
TUPELO         CLEAR     62  57  83 CALM      30.09F
6HR MIN TEMP:  62; 6HR MAX TEMP:  75;

$$

MSZ040-058-300700-
CENTRAL MISSISSIPPI

CITY           SKY/WX    TMP DP  RH WIND       PRES   REMARKS
JACKSON INTL   CLEAR     69  59  70 NE3       30.09S
6HR MIN TEMP:  69; 6HR MAX TEMP:  82;

JACKSON HAWKNS CLEAR     70  58  65 NE3       30.09S
6HR MIN TEMP:  70; 6HR MAX TEMP:  82;

MERIDIAN KEY   CLEAR     63  57  81 CALM      30.08S
6HR MIN TEMP:  63; 6HR MAX TEMP:  81;

MERIDIAN NAS   CLEAR     66  56  70 CALM      30.08S
6HR MIN TEMP:  65; 6HR MAX TEMP:  80;

RAYMOND        FAIR      64  59  82 CALM      30.09S
VICKSBURG      CLEAR     69  61  75 E6        30.08S
6HR MIN TEMP:  69; 6HR MAX TEMP:  83;

$$

MSZ059>079-300700-
SOUTH MISSISSIPPI

CITY           SKY/WX    TMP DP  RH WIND       PRES   REMARKS
BROOKHAVEN     FAIR      66  63  88 CALM      30.11S
COLUMBIA       FAIR      68  63  83 CALM      30.07S
HATTIESBURG    CLEAR     73  63  70 CALM      30.08R
6HR MIN TEMP:  72; 6HR MAX TEMP:  87;

MCCOMB         CLEAR     72  63  73 N3        30.08S
6HR MIN TEMP:  72; 6HR MAX TEMP:  85;

NATCHEZ        CLEAR     70  63  78 E3        30.09S
6HR MIN TEMP:  70; 6HR MAX TEMP:  82;

PINE BELT      CLEAR     66  59  77 N5        30.09S
6HR MIN TEMP:  66; 6HR MAX TEMP:  84;

$$

MSZ080>082-300700-
COASTAL MISSISSIPPI

CITY           SKY/WX    TMP DP  RH WIND       PRES   REMARKS
BILOXI         CLEAR     76  67  73 NE9       30.03S
6HR MIN TEMP:  76; 6HR MAX TEMP:  86;

PASCAGOULA     PTCLDY    73  66  78 N5        30.04R
6HR MIN TEMP:  73; 6HR MAX TEMP:  86;

GULFPORT       CLEAR     79  65  62 N8        30.03S
6HR MIN TEMP:  79; 6HR MAX TEMP:  89;

$$



USA.gov is the U.S. government's official web portal to all federal, state and local government web resources and services.